Location: Navarre
(52.9016°N, 113.4144°W)
Time: 15:41:17
(UTC+00:00)

N. Korean satellite - Visible Passes

Search period start: 01 December 2021 00:00
Search period end: 11 December 2021 00:00
Orbit: 447 x 495 km, 97.3° (Epoch: 01 December)

Date Brightness Start Highest point End Pass type
(mag) Time Alt. Az. Time Alt. Az. Time Alt. Az.
01 Dec 10.0 01:16:12 10° WSW 01:17:22 11° W 01:18:31 10° WNW visible
01 Dec 7.9 12:32:22 10° NNE 12:35:35 37° E 12:38:44 10° SSE visible
01 Dec 7.7 14:06:00 10° NNW 14:08:35 20° WNW 14:11:09 10° WSW visible
02 Dec 9.4 00:45:49 10° SW 00:48:36 21° W 00:51:22 10° NW visible
02 Dec 9.2 12:04:25 10° NE 12:06:54 19° E 12:09:22 10° SE visible
02 Dec 6.8 13:37:04 10° N 13:40:16 38° WNW 13:43:25 10° SW visible
03 Dec 8.0 00:16:34 10° S 00:19:56 42° W 00:23:18 10° NNW visible
03 Dec 6.2 13:08:24 10° NNE 13:11:49 82° WNW 13:15:12 10° SSW visible
04 Dec 7.5 12:39:58 10° NNE 12:43:16 45° E 12:46:31 10° S visible
04 Dec 7.9 14:13:52 10° NNW 14:16:10 17° WNW 14:18:27 10° WSW visible
05 Dec 9.6 00:53:50 10° SW 00:56:18 18° W 00:58:46 10° NW visible
05 Dec 8.9 12:11:50 10° NE 12:14:34 22° E 12:17:18 10° SSE visible
05 Dec 7.1 13:44:46 10° N 13:47:50 31° WNW 13:50:52 10° SW visible
06 Dec 8.4 00:24:21 10° SSW 00:27:35 34° W 00:30:48 10° NNW visible
06 Dec 9.8 11:44:33 10° ENE 11:45:46 11° E 11:46:59 10° ESE visible
06 Dec 6.3 13:16:00 10° N 13:19:23 66° WNW 13:22:44 10° SSW visible
06 Dec 6.8 23:55:27 10° S 23:58:58 73° WSW 00:02:25 10° NNW visible
07 Dec 7.0 12:47:28 10° NNE 12:50:49 56° E 12:54:09 10° S visible
07 Dec 8.1 14:21:39 10° NNW 14:23:38 15° WNW 14:25:37 10° W visible
08 Dec 9.7 01:01:50 10° SW 01:03:54 15° W 01:05:58 10° NW visible
08 Dec 8.6 12:19:11 10° NE 12:22:08 26° E 12:25:03 10° SSE visible
08 Dec 7.3 13:52:23 10° N 13:55:18 27° WNW 13:58:11 10° SW visible
09 Dec 8.8 00:32:03 10° SSW 00:35:07 28° W 00:38:10 10° NW visible
09 Dec 9.6 11:51:29 10° ENE 11:53:19 14° E 11:55:08 10° ESE visible
09 Dec 6.4 13:23:30 10° N 13:26:51 54° WNW 13:30:09 10° SSW visible
10 Dec 7.2 00:02:59 10° S 00:06:26 59° W 00:09:51 10° NNW visible
10 Dec 7.2 12:54:52 10° NNE 13:00:09 24° S 13:01:39 10° S visible
10 Dec 8.3 14:29:25 10° NNW 14:30:59 13° WNW 14:31:21 13° WNW visible
